Weather History for Harrisburg, IL

Change the Weather History Date:

Thursday, November 1, 2012

  Actual Average (KMWA) Record (KMWA)
Temperature  
Mean Temperature 45 °F -  
Max Temperature 60 °F 65 °F 81 °F (1987)
Min Temperature 30 °F 44 °F 22 °F (1993)
Degree Days  
Heating Degree Days 20    
Moisture  
Dew Point 31 °F    
Average Humidity 58    
Maximum Humidity 87    
Minimum Humidity 33    
Precipitation  
Precipitation 0.00 in - - ()
Sea Level Pressure  
Sea Level Pressure 29.96 in    
Wind  
Wind Speed 3 mph (WSW)    
Max Wind Speed 10 mph    
Max Gust Speed -    
Visibility 10 miles    
Events      
Averages and records for this station are not official NWS values.
T = Trace of Precipitation, MM = Missing Value Source: NWS Daily Summary

Daily Weather History Graph

Daily Weather History Graph

Search for Another Location

Airport:

Trip Planner

Search our weather history database for the weather conditions in past years. The results will help you decide how hot, cold, wet, or windy it might be!

Date:

Astronomy

Nov. 01, 2012 Rise Set
Actual Time 7:20 AM CDT 5:54 PM CDT
Civil Twilight 6:52 AM CDT 6:22 PM CDT
Nautical Twilight 6:21 AM CDT 6:53 PM CDT
Astronomical Twilight 5:51 AM CDT 7:23 PM CDT
Moon 7:54 PM CDT (11/1) 9:50 AM CDT (11/1)
Length of Visible Light 11h 29m
Length of Day
10h 34m
Waning Gibbous, 93% of the Moon is Illuminated
Nov 1
Waning Gibbous
Nov 6
Last Quarter
Nov 13
New
Nov 20
First Quarter
Nov 28
Full

Hourly Weather History & Observations

Time (CDT) Temp. Windchill Dew Point Humidity Pressure Visibility Wind Dir Wind Speed Gust Speed Precip Events Conditions
12:15 AM 32.0 °F - 28.4 °F 87% 29.97 in 10.0 mi Calm Calm - N/A   Clear
12:35 AM 32.0 °F - 28.4 °F 87% 29.97 in 10.0 mi Calm Calm - N/A   Clear
12:55 AM 32.0 °F - 28.4 °F 87% 29.97 in 10.0 mi Calm Calm - N/A   Clear
1:15 AM 32.0 °F - 28.4 °F 87% 29.97 in 10.0 mi Calm Calm - N/A   Clear
1:35 AM 32.0 °F - 26.6 °F 80% 29.97 in 10.0 mi Calm Calm - N/A   Clear
1:55 AM 32.0 °F 28.7 °F 26.6 °F 80% 29.97 in 10.0 mi WSW 3.5 mph - N/A   Clear
2:15 AM 30.2 °F 26.7 °F 26.6 °F 86% 29.97 in 10.0 mi West 3.5 mph - N/A   Clear
2:35 AM 32.0 °F - 26.6 °F 80% 29.97 in 10.0 mi Calm Calm - N/A   Clear
2:55 AM 32.0 °F - 28.4 °F 87% 29.97 in 10.0 mi Calm Calm - N/A   Clear
3:15 AM 32.0 °F 28.7 °F 26.6 °F 80% 29.97 in 10.0 mi West 3.5 mph - N/A   Clear
3:35 AM 32.0 °F 28.7 °F 26.6 °F 80% 29.97 in 10.0 mi West 3.5 mph - N/A   Clear
3:55 AM 32.0 °F 28.7 °F 26.6 °F 80% 29.97 in 10.0 mi West 3.5 mph - N/A   Clear
4:15 AM 32.0 °F 26.4 °F 26.6 °F 80% 29.97 in 10.0 mi WNW 5.8 mph - N/A   Clear
4:35 AM 33.8 °F 27.0 °F 26.6 °F 75% 29.98 in 10.0 mi WNW 8.1 mph - N/A   Clear
4:55 AM 33.8 °F 28.6 °F 26.6 °F 75% 29.98 in 10.0 mi WNW 5.8 mph - N/A   Clear
5:15 AM 33.8 °F 29.6 °F 26.6 °F 75% 29.98 in 10.0 mi WNW 4.6 mph - N/A   Clear
5:35 AM 32.0 °F 28.7 °F 26.6 °F 80% 29.98 in 10.0 mi WNW 3.5 mph - N/A   Clear
5:55 AM 32.0 °F - 26.6 °F 80% 29.99 in 10.0 mi Calm Calm - N/A   Clear
6:15 AM 32.0 °F - 26.6 °F 80% 29.98 in 10.0 mi Calm Calm - N/A   Clear
6:35 AM 32.0 °F - 26.6 °F 80% 29.99 in 10.0 mi Calm Calm - N/A   Clear
6:55 AM 33.8 °F - 26.6 °F 75% 29.99 in 10.0 mi Calm Calm - N/A   Clear
7:15 AM 33.8 °F 30.8 °F 28.4 °F 81% 30.00 in 10.0 mi WSW 3.5 mph - N/A   Clear
7:35 AM 33.8 °F 30.8 °F 28.4 °F 81% 30.00 in 10.0 mi West 3.5 mph - N/A   Clear
7:55 AM 35.6 °F 30.7 °F 28.4 °F 75% 29.99 in 10.0 mi West 5.8 mph - N/A   Clear
8:15 AM 35.6 °F 31.7 °F 30.2 °F 81% 30.01 in 10.0 mi West 4.6 mph - N/A   Clear
8:35 AM 37.4 °F 33.8 °F 30.2 °F 75% 30.01 in 10.0 mi WNW 4.6 mph - N/A   Clear
8:55 AM 39.2 °F 35.9 °F 30.2 °F 70% 30.01 in 10.0 mi WSW 4.6 mph - N/A   Scattered Clouds
9:15 AM 41.0 °F 39.0 °F 30.2 °F 65% 30.01 in 10.0 mi West 3.5 mph - N/A   Scattered Clouds
9:35 AM 42.8 °F 39.3 °F 30.2 °F 61% 30.02 in 10.0 mi WNW 5.8 mph - N/A   Scattered Clouds
9:55 AM 46.4 °F 42.9 °F 30.2 °F 53% 30.03 in 10.0 mi West 6.9 mph - N/A   Clear
10:15 AM 46.4 °F 42.9 °F 30.2 °F 53% 30.02 in 10.0 mi West 6.9 mph - N/A   Clear
10:35 AM 50.0 °F - 28.4 °F 43% 30.02 in 10.0 mi West 6.9 mph - N/A   Clear
10:55 AM 51.8 °F - 26.6 °F 38% 30.02 in 10.0 mi West 8.1 mph - N/A   Clear
11:15 AM 53.6 °F - 28.4 °F 38% 30.03 in 10.0 mi WNW 8.1 mph - N/A   Clear
11:35 AM 53.6 °F - 26.6 °F 35% 30.01 in 10.0 mi West 3.5 mph - N/A   Clear
11:55 AM 55.4 °F - 26.6 °F 33% 30.01 in 10.0 mi WNW 9.2 mph - N/A   Clear
12:15 PM 57.2 °F - 28.4 °F 33% 30.01 in 10.0 mi WNW 9.2 mph - N/A   Clear
12:35 PM 59.0 °F - 30.2 °F 34% 30.00 in 10.0 mi WNW 10.4 mph - N/A   Clear
12:55 PM 59.0 °F - 30.2 °F 34% 29.99 in 10.0 mi WNW 10.4 mph - N/A   Scattered Clouds
1:15 PM 59.0 °F - 30.2 °F 34% 29.98 in 10.0 mi WNW 5.8 mph - N/A   Scattered Clouds
1:35 PM 59.0 °F - 30.2 °F 34% 29.97 in 10.0 mi West 6.9 mph - N/A   Scattered Clouds
1:55 PM 60.8 °F - 32.0 °F 34% 29.96 in 10.0 mi West 8.1 mph - N/A   Scattered Clouds
2:15 PM 60.8 °F - 32.0 °F 34% 29.96 in 10.0 mi WSW 8.1 mph - N/A   Scattered Clouds
2:35 PM 60.8 °F - 32.0 °F 34% 29.95 in 10.0 mi West 8.1 mph - N/A   Scattered Clouds
2:55 PM 60.8 °F - 32.0 °F 34% 29.95 in 10.0 mi SW 5.8 mph - N/A   Scattered Clouds
3:15 PM 59.0 °F - 32.0 °F 36% 29.94 in 10.0 mi WNW 4.6 mph - N/A   Clear
3:35 PM 59.0 °F - 32.0 °F 36% 29.95 in 10.0 mi West 9.2 mph - N/A   Scattered Clouds
3:55 PM 60.8 °F - 32.0 °F 34% 29.94 in 10.0 mi West 6.9 mph - N/A   Scattered Clouds
4:15 PM 60.8 °F - 32.0 °F 34% 29.93 in 10.0 mi SW 5.8 mph - N/A   Scattered Clouds
4:35 PM 59.0 °F - 32.0 °F 36% 29.93 in 10.0 mi SW 5.8 mph - N/A   Mostly Cloudy
4:55 PM 59.0 °F - 32.0 °F 36% 29.92 in 10.0 mi WSW 4.6 mph - N/A   Overcast
5:15 PM 59.0 °F - 33.8 °F 39% 29.92 in 10.0 mi SW 4.6 mph - N/A   Overcast
5:35 PM 59.0 °F - 33.8 °F 39% 29.91 in 10.0 mi SW 3.5 mph - N/A   Overcast
5:55 PM 57.2 °F - 35.6 °F 44% 29.91 in 10.0 mi SSW 3.5 mph - N/A   Overcast
6:15 PM 55.4 °F - 33.8 °F 44% 29.91 in 10.0 mi South 3.5 mph - N/A   Overcast
6:35 PM 55.4 °F - 33.8 °F 44% 29.91 in 10.0 mi SSW 3.5 mph - N/A   Overcast
6:55 PM 55.4 °F - 35.6 °F 47% 29.91 in 10.0 mi SSW 4.6 mph - N/A   Overcast
7:15 PM 55.4 °F - 35.6 °F 47% 29.91 in 10.0 mi SW 3.5 mph - N/A   Overcast
7:35 PM 55.4 °F - 35.6 °F 47% 29.90 in 10.0 mi SSW 4.6 mph - N/A   Overcast
7:55 PM 55.4 °F - 35.6 °F 47% 29.90 in 10.0 mi SSW 4.6 mph - N/A   Overcast
8:15 PM 55.4 °F - 35.6 °F 47% 29.90 in 10.0 mi SW 5.8 mph - N/A   Overcast
8:35 PM 55.4 °F - 35.6 °F 47% 29.91 in 10.0 mi SW 3.5 mph - N/A   Overcast
8:55 PM 53.6 °F - 35.6 °F 51% 29.91 in 10.0 mi SW 3.5 mph - N/A   Scattered Clouds
9:15 PM 53.6 °F - 35.6 °F 51% 29.91 in 10.0 mi SW 4.6 mph - N/A   Mostly Cloudy
9:35 PM 51.8 °F - 37.4 °F 58% 29.91 in 10.0 mi SW 3.5 mph - N/A   Mostly Cloudy
9:55 PM 51.8 °F - 35.6 °F 54% 29.91 in 10.0 mi SW 4.6 mph - N/A   Mostly Cloudy
10:15 PM 51.8 °F - 35.6 °F 54% 29.91 in 10.0 mi SSW 4.6 mph - N/A   Clear
10:35 PM 50.0 °F - 35.6 °F 58% 29.90 in 10.0 mi SSW 3.5 mph - N/A   Clear
10:55 PM 50.0 °F - 35.6 °F 58% 29.90 in 10.0 mi SSW 3.5 mph - N/A   Clear
11:15 PM 50.0 °F - 35.6 °F 58% 29.89 in 10.0 mi SSW 3.5 mph - N/A   Clear
11:35 PM 50.0 °F - 35.6 °F 58% 29.88 in 10.0 mi SSW 3.5 mph - N/A   Clear
11:55 PM 50.0 °F - 35.6 °F 58% 29.88 in 10.0 mi SW 3.5 mph - N/A   Clear